Location: Rotheul
(50.2849°N, 11.2349°E)
Time: 03:34:03
(UTC+02:00)

ISS - Pass Details

Date: 23 May 2018
Orbit: 402 x 407 km, 51.6° (Epoch: 23 May)

Event Time Altitude Azimuth Distance (km) Brightness Sun altitude
Rises 22:07:02 0° 232° (SW) 2,312 0.1 -8.2°
Reaches altitude 10° 22:09:10 10° 225° (SW) 1,455 -1.0 -8.4°
Maximum altitude 22:12:17 43° 153° (SSE) 574 -3.5 -8.7°
Drops below altitude 10° 22:15:25 10° 80° (E) 1,459 -1.3 -9.1°
Sets 22:17:33 0° 73° (ENE) 2,321 -0.2 -9.3°
